Regional Weather Roundup
Issued by NWS

Home | Current Version | Previous Version | Text Only | Print | Product List | Glossary On
Versions: 1 2 3 4 5 6 7 8 9 10 11 12 13 14 15 16 17 18 19 20 21 22 23 24 25 26 27 28 29 30 31 32 33 34 35 36 37 38 39 40 41 42 43 44 45 46 47 48 49 50
000
ASUS43 KDTX 111201
RWRMI
MICHIGAN HOURLY REGIONAL WEATHER ROUNDUP
NATIONAL WEATHER SERVICE DETROIT/PONTIAC MI
800 AM EDT FRI JUL 11 2014

NOTE: "FAIR" INDICATES FEW OR NO CLOUDS BELOW 12,000 FEET WITH NO
SIGNIFICANT WEATHER AND/OR OBSTRUCTION TO VISIBILITY.

MIZ047>049-052>055-059>063-066>070-074>076-081>083-111300-
SOUTHEAST LOWER MICHIGAN

CITY           SKY/WX    TMP DP  RH WIND       PRES   REMARKS
ADRIAN         SUNNY     63  59  87 NE3       30.25R
6HR MIN TEMP:  56; 6HR MAX TEMP:  63;

ALMA           SUNNY     58  57  96 CALM      30.24S
ANN ARBOR      SUNNY     63  57  81 NE5       30.24R
BAD AXE        SUNNY     57  55  93 CALM      30.26R
6HR MIN TEMP:  46; 6HR MAX TEMP:  57;

CARO           SUNNY     58  58 100 CALM      30.24R
DETROIT CITY   SUNNY     66  57  72 CALM      30.24S
6HR MIN TEMP:  60; 6HR MAX TEMP:  66;

DETROIT        MOSUNNY   64  57  78 VRB5      30.24S
6HR MIN TEMP:  58; 6HR MAX TEMP:  64;

FLINT          SUNNY     63  55  75 CALM      30.24S
6HR MIN TEMP:  56; 6HR MAX TEMP:  63;

GROSSE ILE     SUNNY     66  61  82 NE3       30.22S
HILLSDALE      SUNNY     62  62 100 CALM      30.24S FOG
6HR MIN TEMP:  53; 6HR MAX TEMP:  62;

HOWELL         SUNNY     61  59  93 CALM      30.25R
6HR MIN TEMP:  55; 6HR MAX TEMP:  61;


CITY           SKY/WX    TMP DP  RH WIND       PRES   REMARKS
JACKSON        SUNNY     62  59  90 CALM      30.24S
6HR MIN TEMP:  54; 6HR MAX TEMP:  62;

LAMBERTVILLE   SUNNY     64  61  88 CALM      30.24R
LANSING        SUNNY     63  58  83 CALM      30.24S
6HR MIN TEMP:  56; 6HR MAX TEMP:  63;

LAPEER         FAIR      58  54  85 CALM      30.25S
MASON          SUNNY     59  58  97 SE5       30.25R FOG
MONROE         SUNNY     64  61  88 CALM      30.22S
MT. CLEMENS    SUNNY     62  58  87 N3        30.22F
6HR MIN TEMP:  54; 6HR MAX TEMP:  62;

PONTIAC        MOSUNNY   63  55  75 CALM      30.24S
6HR MIN TEMP:  55; 6HR MAX TEMP:  63;

PORT HOPE        N/A     61  51  70 SW6       30.23R
6HR MIN TEMP:  52; 6HR MAX TEMP:  61;

PORT HURON     SUNNY     57  57 100 CALM      30.25R
TRI CITIES     SUNNY     62  57  83 S3        30.24S
6HR MIN TEMP:  56; 6HR MAX TEMP:  62;

TROY           SUNNY     63  56  79 CALM      30.25S
SAGINAW HB     SUNNY     59  59 100 CALM      30.23S
$$
MIZ043>046-050>051-056>058-064>065-071>073-077>080-111300-
SOUTHWEST LOWER MICHIGAN

CITY           SKY/WX    TMP DP  RH WIND       PRES   REMARKS
BATTLE CREEK   SUNNY     63  57  81 CALM      30.24R
6HR MIN TEMP:  55; 6HR MAX TEMP:  63;

BENTON HARBOR  MOSUNNY   58  56  93 CALM      30.21R
6HR MIN TEMP:  51; 6HR MAX TEMP:  58;

BIG RAPIDS     SUNNY     55  55 100 CALM      30.22S
6HR MIN TEMP:  49; 6HR MAX TEMP:  55;

COLDWATER      SUNNY     61  60  97 CALM      30.24R
6HR MIN TEMP:  54; 6HR MAX TEMP:  61;

FREMONT        FAIR      60  56  88 CALM      30.21S
HOLLAND        MOSUNNY   62  56  80 SE6       30.22R
6HR MIN TEMP:  55; 6HR MAX TEMP:  62;

GRAND RAPIDS   MOSUNNY   61  56  83 S5        30.22S
6HR MIN TEMP:  55; 6HR MAX TEMP:  61;

IONIA          FAIR      58  56  95 SE3       30.23R
KALAMAZOO      SUNNY     61  57  87 CALM      30.23S
6HR MIN TEMP:  53; 6HR MAX TEMP:  61;

LUDINGTON      CLOUDY    59  55  86 E3        30.20S
6HR MIN TEMP:  50; 6HR MAX TEMP:  59;

MARSHALL       SUNNY     57  55  94 CALM      30.23S
MOUNT PLEASANT SUNNY     56  55  97 CALM      30.22S
6HR MIN TEMP:  49; 6HR MAX TEMP:  56;

MUSKEGON       MOSUNNY   62  55  77 SE6       30.21S
6HR MIN TEMP:  54; 6HR MAX TEMP:  62;

SOUTH HAVEN    MOSUNNY   60  56  88 CALM      30.21S
$$
MIZ016>042-111300-
NORTHERN LOWER MICHIGAN

CITY           SKY/WX    TMP DP  RH WIND       PRES   REMARKS
ALPENA         SUNNY     55  51  86 CALM      30.22S
6HR MIN TEMP:  43; 6HR MAX TEMP:  55;

BEAVER ISLAND  SUNNY     64  54  69 S8        30.17S
6HR MIN TEMP:  50; 6HR MAX TEMP:  64;

BELLAIRE       SUNNY     56  51  83 CALM      30.19S
6HR MIN TEMP:  46; 6HR MAX TEMP:  56;

CADILLAC       SUNNY     55  52  91 CALM      30.22R
CHARLEVOIX     MOSUNNY   59  53  80 SE5       30.21S
6HR MIN TEMP:  54; 6HR MAX TEMP:  59;

FRANKFORT      PTSUNNY   63  52  67 CALM      30.19R
GAYLORD        SUNNY     57  53  86 SW3       30.21S
6HR MIN TEMP:  50; 6HR MAX TEMP:  57;

GRAYLING       SUNNY     53  51  95 CALM      30.22S
6HR MIN TEMP:  40; 6HR MAX TEMP:  53;

HARBOR SPRINGS MOSUNNY   61  53  73 CALM      30.18R
HOUGHTON LAKE  SUNNY     56  53  90 CALM      30.23S
6HR MIN TEMP:  43; 6HR MAX TEMP:  56;

MANISTEE       CLOUDY    55  52  88 E6        30.21R
OSCODA         MOSUNNY   60  55  83 SW6       30.23S
PELLSTON       SUNNY     58  53  84 S3        30.19S
6HR MIN TEMP:  43; 6HR MAX TEMP:  58;

ROGERS CITY    SUNNY     59  53  81 S5        30.20F
TRAVERSE CITY  MOSUNNY   62  53  72 VRB3      30.18R
6HR MIN TEMP:  53; 6HR MAX TEMP:  62;

$$
MIZ007>008-015-111300-
EASTERN UPPER MICHIGAN

CITY           SKY/WX    TMP DP  RH WIND       PRES   REMARKS
KINROSS        SUNNY     57  54  88 SE7       30.18R
6HR MIN TEMP:  52; 6HR MAX TEMP:  57;

MACKINAC ISLAN SUNNY     59  53  82 S8        30.18R
6HR MIN TEMP:  56; 6HR MAX TEMP:  59;

NEWBERRY       MOSUNNY   60  52  76 S13       30.15S
S. S. MARIE    MOSUNNY   54  49  83 VRB3      30.18R
6HR MIN TEMP:  50; 6HR MAX TEMP:  54;

$$
MIZ004>006-011>014-085-111300-
CENTRAL UPPER MICHIGAN

CITY           SKY/WX    TMP DP  RH WIND       PRES   REMARKS
MANISTIQUE     MOSUNNY   57  54  88 S6        30.15R
ESCANABA       MOSUNNY   64  54  68 SW8       30.13R
6HR MIN TEMP:  54; 6HR MAX TEMP:  64;

MENOMINEE      MOSUNNY   64  55  72 SW7       30.13R
6HR MIN TEMP:  61; 6HR MAX TEMP:  64;

SAWYER-GWINN   SUNNY     59  52  77 S7        30.12R
$$
MIZ001>003-009>011-084-111300-
WESTERN UPPER MICHIGAN

CITY           SKY/WX    TMP DP  RH WIND       PRES   REMARKS
IRON MOUNTAIN  CLOUDY    58  54  86 SE3       30.12R
6HR MIN TEMP:  55; 6HR MAX TEMP:  58;

HOUGHTON       PTSUNNY   62  58  86 SW3       30.04R
6HR MIN TEMP:  59; 6HR MAX TEMP:  62;

COPPER HARBOR    N/A     67  59  75 W12G20    30.02R
6HR MIN TEMP:  61; 6HR MAX TEMP:  67;

$$

ABBREVIATIONS USED IN REMARKS
   TC - TEMPERATURE IN CELSIUS
  WCI - WIND CHILL INDEX
   HX - HEAT INDEX
  VSB - VISIBILITY



USA.gov is the U.S. government's official web portal to all federal, state and local government web resources and services.